Погода в Елизарове

Россия / Костромская область     58°32′15″N   44°48′50″E
темп.,
°C
ветер,
м/с
пор.,
м/с
влажн.,
%
обл.,
%
осадки,
мм/ч
давл.,
гПа
погр.,
м
9 мая, вс
вс900:00+9юв41277100 0.0 1009441
03:00+9юв51491100 0.1 1007552
06:00+10ююв41390100 0.1 1007670
09:00+11ююв51392100 1.0 1007892
12:00+13ю41088100 0.9 1007969
15:00+12зюз2696100 2.5 1008425
18:00+10ссв1399100 6.8 1009175
21:00+9ссз3798100 13.1 1011423
10 мая, пн
пн1000:00+6ссз51296100 4.9 1014557
03:00+5ссз41195100 6.4 1017552
06:00+4ссз41192100 0.3 1021587
09:00+7с5877100 0.3 1023850
12:00+12с465194 0.0 10251418
15:00+13с34455 0.0 10261684
18:00+12ссв25555 0.0 1027455
21:00+7ссв11762 0.0 102910
11 мая, вт
вт1100:00+5всв11855 0.0 103110
03:00+4св11905 0.0 103210
06:00+7в12775 0.0 1033116
09:00+13всв23515 0.0 1033772
12:00+16всв22383 0.0 10321114
15:00+18в12362 0.0 10311202
18:00+16в12530 0.0 103173
21:00+10вюв22695 0.0 103110
12 мая, ср
ср1200:00+8в11725 0.0 103210
03:00+7всв22765 0.0 103219
06:00+10в24671 0.0 1032123
09:00+16в24465 0.0 1031544
12:00+20вюв23405 0.0 10311044
15:00+22юв22420 0.0 10301194
18:00+20в22600 0.0 102954
21:00+14в22780 0.0 102919
13 мая, чт
чт1300:00+13в228531 0.0 102939
03:00+14в2581100 0.0 1028122
06:00+14в268399 0.0 1028169
09:00+20вюв356197 0.0 1027445
12:00+24юв464140 0.0 10262549
15:00+23юв464448 0.0 10241669
18:00+20юв3860100 0.0 1024297
21:00+18юв2969100 0.0 1023261